Home > Time Zones > World Clock > Weather > Italy > Monza > Past weeks

Flag for Italy Weather past 2 weeks in Monza, Italy

Now
81 °F

Sunny.


Feels Like: 82 °F
Forecast: 66 / 87 °F
Wind: 3 mph from North

Location: Milan / Linate

Current Time: Aug 28, 2015 at 11:38:10 AM

Latest Report: Aug 28, 2015 at 10:50 AM


Visibility: 10 mi

Pressure: 30.12 "Hg

Humidity: 58%

Dew point: 64 °F

Location of MonzaLocation

Historic Weather in Monza — Graph

°F

Monza temperature yesterday

Maximum temperature yesterday: 88 °F (at 5:20 PM)
Minimum temperature yesterday: 64 °F (at 4:20 AM)
Average temperature yesterday: 76 °F

Past Weeks' High & Low Weather Summary

 TemperatureHumidityPressure
High93 °F (Aug 13, 2:20 PM)100% (Aug 24, 6:50 AM)30.18 "Hg (Aug 24, 6:50 AM)
Low63 °F (Aug 16, 3:50 AM)30% (Aug 13, 3:50 PM)29.71 "Hg (Aug 17, 6:20 PM)
Average72 °F71%29.95 "Hg
* Reported Aug 13 10:20 AM — Aug 28 10:20 AM, Monza, Weather by CustomWeather, © 2015

Note: Actual official high and low records may vary slightly from our data, if they occured in-between our weather recording intervals... More about our weather records

Advertising

Monza weather history for previous 24 hours

 ConditionsComfort  
Time TempWeatherWind HumidityBarometerVisibility
10:20 AM
Fri, Aug 28
79 °FPassing clouds.5 mph61%30.12 "HgN/A
9:50 AM77 °FPassing clouds.5 mph69%30.12 "HgN/A
8:50 AM75 °FSunny.2 mph74%30.09 "Hg10 mi
8:20 AM73 °FSunny.2 mph74%30.09 "Hg10 mi
7:50 AM70 °FSunny.2 mph88%30.09 "Hg10 mi
7:20 AM68 °FClear.1 mph88%30.09 "Hg10 mi
6:50 AM66 °FClear.No wind94%30.07 "Hg10 mi
6:20 AM66 °FClear.No wind94%30.07 "Hg10 mi
5:50 AM66 °FClear.No wind94%30.07 "Hg10 mi
4:50 AM68 °FClear.No wind88%30.07 "Hg10 mi
4:20 AM68 °FClear.2 mph88%30.07 "Hg10 mi
3:50 AM68 °FClear.2 mph88%30.07 "Hg10 mi
3:20 AM70 °FClear.No wind83%30.07 "Hg10 mi
2:50 AM70 °FClear.No wind83%30.07 "Hg10 mi
2:20 AM70 °FClear.1 mph78%30.07 "Hg10 mi
1:50 AM72 °FClear.3 mph78%30.07 "Hg10 mi
1:20 AM72 °FPassing clouds.2 mph78%30.07 "HgN/A
12:50 AM73 °FPassing clouds.1 mph74%30.07 "HgN/A
12:20 AM72 °FPassing clouds.2 mph78%30.07 "HgN/A
11:50 PM
Thu, Aug 27
75 °FPassing clouds.3 mph69%30.07 "HgN/A
11:20 PM73 °FPassing clouds.1 mph74%30.07 "HgN/A
10:50 PM75 °FPassing clouds.1 mph69%30.07 "HgN/A
10:20 PM75 °FPassing clouds.1 mph69%30.04 "HgN/A
9:50 PM77 °FClear.3 mph61%30.04 "Hg10 mi
9:20 PM75 °FClear.2 mph74%30.04 "Hg10 mi
8:50 PM77 °FSunny.1 mph69%30.04 "Hg10 mi
8:20 PM79 °FSunny.1 mph58%30.01 "Hg10 mi
7:50 PM81 °FSunny.2 mph54%30.01 "Hg10 mi
7:20 PM82 °FPassing clouds.3 mph48%30.01 "HgN/A
6:50 PM84 °FPassing clouds.5 mph43%30.01 "HgN/A
6:20 PM86 °FPassing clouds.6 mph38%30.01 "HgN/A
5:50 PM86 °FPassing clouds.3 mph38%30.01 "HgN/A
5:20 PM88 °FPassing clouds.5 mph38%30.01 "HgN/A
4:50 PM86 °FPassing clouds.6 mph38%30.01 "HgN/A
4:20 PM86 °FPassing clouds.5 mph38%30.01 "HgN/A
3:50 PM86 °FPassing clouds.3 mph40%30.04 "HgN/A
3:20 PM86 °FPassing clouds.5 mph40%30.04 "HgN/A
2:50 PM86 °FPassing clouds.5 mph40%30.04 "HgN/A
2:20 PM84 °FPassing clouds.3 mph48%30.04 "HgN/A
1:50 PM82 °FPassing clouds.5 mph51%30.07 "HgN/A
1:20 PM82 °FPassing clouds.5 mph51%30.07 "HgN/A
12:50 PM82 °FPassing clouds.5 mph58%30.07 "HgN/A
12:20 PM81 °FSunny.3 mph58%30.07 "Hg10 mi
11:50 AM81 °FPassing clouds.3 mph58%30.07 "HgN/A
11:20 AM79 °FPassing clouds.3 mph65%30.07 "HgN/A
Weather by CustomWeather, © 2015

See weather overviewHow to use our weather pages